This is the latest recevied weather packets stored in our database for station/object S56VIL-11. If no packets are shown the sender has not sent any weather packets the latest 10 day(s).
| Time | Temp. | Humidity | Pressure | Rain* | Wind** | Luminosity | Snow |
|---|---|---|---|---|---|---|---|
| 1787937354 | 23.33° C | 68% | 1029.4 hPa | - | - | - | - |
| 1787936464 | 23.89° C | 68% | 1029.6 hPa | - | - | - | - |
| 1787935554 | 23.33° C | 68% | 1029.2 hPa | - | - | - | - |
| 1787933754 | 23.89° C | 68% | 1029.4 hPa | - | - | - | - |
| 1787932857 | 24.44° C | 67% | 1029.2 hPa | - | - | - | - |
| 1787931953 | 25.56° C | 66% | 1029.3 hPa | - | - | - | - |
| 1787930153 | 26.67° C | 66% | 1029.4 hPa | - | - | - | - |
| 1787929258 | 26.67° C | 66% | 1029.4 hPa | - | - | - | - |
| 1787928353 | 27.22° C | 66% | 1029.5 hPa | - | - | - | - |
| 1787927456 | 27.78° C | 66% | 1029.7 hPa | - | - | - | - |
| 1787926552 | 28.89° C | 65% | 1029.9 hPa | - | - | - | - |
| 1787925658 | 28.89° C | 66% | 1030.1 hPa | - | - | - | - |
| 1787924752 | 28.33° C | 65% | 1030.2 hPa | - | - | - | - |
| 1787923855 | 28.33° C | 66% | 1030.3 hPa | - | - | - | - |
| 1787922951 | 28.33° C | 66% | 1030.4 hPa | - | - | - | - |
| 1787922053 | 28.33° C | 66% | 1030.4 hPa | - | - | - | - |
| 1787921151 | 28.33° C | 65% | 1030.5 hPa | - | - | - | - |
| 1787920254 | 28.89° C | 66% | 1030.5 hPa | - | - | - | - |
| 1787919350 | 28.89° C | 66% | 1030.7 hPa | - | - | - | - |
| 1787918450 | 28.33° C | 67% | 1030.7 hPa | - | - | - | - |
| 1787917551 | 28.89° C | 66% | 1030.8 hPa | - | - | - | - |
| 1787916653 | 28.89° C | 67% | 1030.8 hPa | - | - | - | - |
| 1787915750 | 28.89° C | 67% | 1030.6 hPa | - | - | - | - |
| 1787914853 | 28.89° C | 67% | 1030.7 hPa | - | - | - | - |
| 1787913950 | 29.44° C | 68% | 1030.7 hPa | - | - | - | - |
* Rain since midnight (hover to see other rain measurements)
** Current wind speed in m/s (hover to see current wind gust speed)